CW1203 Weather Reports


time (UTC)temp
C
wind
direction
speed
KPH
gust
KPH
rain 1hr
cm
rain 24hr
cm
rain mn
cm
humidity
%
barometer
mb
20260906051523 21 105 0.0 1.6 0.00 0.03 0.00 93 1010.2
20260906050022 21 341 0.0 1.6 0.00 0.03 0.00 94 1010.3
20260906044519 21 335 0.0 1.6 0.00 0.03 0.00 95 1010.4
20260906043017 21 327 0.0 3.2 0.00 0.03 0.00 94 1010.4
20260906041515 21 334 0.0 0.0 0.00 0.03 0.00 93 1010.5
20260906040019 21 333 0.0 1.6 0.00 0.03 0.00 92 1010.5
20260906034511 22 101 0.0 1.6 0.00 0.03 0.03 92 1010.8
20260906033010 22 291 0.0 0.0 0.00 0.03 0.03 91 1010.8
20260906031509 22 256 0.0 3.2 0.00 0.03 0.03 90 1010.8
20260906030011 22 117 0.0 0.0 0.00 0.03 0.03 89 1010.8
20260906024528 23 116 0.0 1.6 0.00 0.03 0.03 87 1010.7
20260906023015 22 105 0.0 0.0 0.00 0.03 0.03 89 1010.7
20260906021510 22 78 0.0 0.0 0.00 0.03 0.03 90 1010.4
20260906020008 21 98 0.0 0.0 0.00 0.03 0.03 92 1010.1
20260906014510 22 99 0.0 0.0 0.00 0.03 0.03 91 1010.3
20260906013020 22 98 0.0 0.0 0.00 0.03 0.03 91 1010.2
20260906011506 22 98 0.0 0.0 0.00 0.03 0.03 91 1010.2
20260906010006 22 99 0.0 1.6 0.00 0.03 0.03 91 1010.0
20260906004506 22 124 0.0 0.0 0.00 0.03 0.03 89 1009.9
20260906003004 22 176 0.0 0.0 0.00 0.03 0.03 89 1009.8
20260906001502 23 207 0.0 0.0 0.00 0.03 0.03 87 1009.4
20260906000002 23 64 0.0 0.0 0.00 0.03 0.03 88 1009.4
20260905234503 23 96 0.0 3.2 0.00 0.03 0.03 88 1009.1
20260905233200 24 84 0.0 0.0 0.00 0.03 0.03 83 1009.1
20260905231600 25 51 0.0 0.0 0.00 0.03 0.03 82 1009.1
20260905230108 26 262 0.0 0.0 0.00 0.03 0.03 78 1009.1
20260905224613 25 304 0.0 3.2 0.00 0.03 0.03 78 1009.0
20260905223058 26 39 0.0 4.8 0.00 0.03 0.03 75 1008.9
20260905221612 26 47 0.0 1.6 0.00 0.03 0.03 74 1009.0
20260905220057 26 320 0.0 1.6 0.00 0.03 0.03 78 1009.0
20260905214557 25 311 0.0 1.6 0.00 0.03 0.03 78 1009.2
20260905213102 25 36 0.0 0.0 0.00 0.03 0.03 77 1009.4
20260905211556 25 269 0.0 1.6 0.00 0.03 0.03 78 1009.6
20260905210057 25 257 0.0 3.2 0.00 0.03 0.03 76 1009.6
20260905204553 25 24 0.0 3.2 0.00 0.03 0.03 78 1009.7
20260905203053 25 246 0.0 3.2 0.00 0.03 0.03 74 1009.9
20260905201607 25 254 0.0 4.8 0.00 0.03 0.03 76 1009.9
20260905200048 25 17 0.0 1.6 0.00 0.03 0.03 80 1010.3
20260905194549 23 221 0.0 3.2 0.03 0.03 0.03 82 1010.1
20260905193056 22 234 0.0 3.2 0.03 0.03 0.03 85 1010.0
20260905191546 22 335 0.0 1.6 0.03 0.03 0.03 88 1010.4
20260905190045 22 223 0.0 4.8 0.03 0.03 0.03 87 1010.1
20260905184549 23 273 4.8 33.8 0.00 0.00 0.00 76 1012.2
20260905183043 26 42 0.0 8.0 0.00 0.00 0.00 78 1010.8
20260905181556 27 299 0.0 1.6 0.00 0.00 0.00 79 1010.3
20260905180042 28 240 0.0 0.0 0.00 0.00 0.00 75 1010.3
20260905174540 29 309 0.0 6.4 0.00 0.00 0.00 67 1010.4
20260905173039 30 36 0.0 6.4 0.00 0.00 0.00 64 1010.6
20260905171537 30 292 0.0 8.0 0.00 0.00 0.00 63 1010.6
20260905170035 30 85 0.0 9.7 0.00 0.00 0.00 67 1010.7
20260905164534 30 264 0.0 8.0 0.00 0.00 0.00 68 1011.0
20260905163034 30 297 1.6 9.7 0.00 0.00 0.00 70 1011.3
20260905161529 29 357 1.6 12.9 0.00 0.00 0.00 70 1011.6
20260905160128 29 13 3.2 12.9 0.00 0.00 0.00 70 1011.5
20260905154527 29 75 0.0 4.8 0.00 0.00 0.00 70 1011.6
20260905153026 29 53 0.0 8.0 0.00 0.00 0.00 72 1011.6
20260905151526 28 25 1.6 9.7 0.00 0.00 0.00 73 1011.5
20260905150020 28 288 0.0 8.0 0.00 0.00 0.00 74 1011.6
20260905144517 28 42 0.0 8.0 0.00 0.00 0.00 75 1011.6
20260905143022 27 34 0.0 8.0 0.00 0.00 0.00 77 1011.8
20260905141512 27 25 0.0 4.8 0.00 0.00 0.00 78 1011.8
20260905140009 26 85 0.0 8.0 0.00 0.00 0.00 80 1011.9
20260905134505 25 105 0.0 4.8 0.00 0.00 0.00 82 1012.0
20260905133001 25 78 0.0 4.8 0.00 0.00 0.00 84 1012.2
20260905131607 24 349 0.0 1.6 0.00 0.00 0.00 86 1012.3
20260905130056 23 98 0.0 1.6 0.00 0.00 0.00 88 1012.3
20260905124556 23 203 0.0 0.0 0.00 0.00 0.00 88 1012.2
20260905123049 22 89 0.0 1.6 0.00 0.00 0.00 91 1012.1
20260905121547 22 113 0.0 0.0 0.00 0.00 0.00 91 1012.0
20260905120046 22 113 0.0 0.0 0.00 0.00 0.00 91 1012.0
20260905114547 22 113 0.0 0.0 0.00 0.00 0.00 90 1011.8
20260905113045 22 101 0.0 0.0 0.00 0.00 0.00 90 1011.6
20260905111554 22 33 0.0 0.0 0.00 0.00 0.00 90 1011.4
20260905110145 22 6 0.0 1.6 0.00 0.00 0.00 90 1011.2
20260905104557 22 75 0.0 0.0 0.00 0.00 0.00 90 1011.0
20260905103043 22 96 0.0 0.0 0.00 0.00 0.00 90 1011.0
20260905101542 22 255 0.0 1.6 0.00 0.00 0.00 89 1010.9
20260905100040 22 80 0.0 3.2 0.00 0.00 0.00 89 1010.9
20260905094538 22 110 0.0 1.6 0.00 0.00 0.00 90 1010.8
20260905093036 22 214 0.0 1.6 0.00 0.00 0.00 89 1010.8
20260905091539 22 206 0.0 0.0 0.00 0.00 0.00 90 1010.9
20260905090031 22 210 0.0 1.6 0.00 0.00 0.00 89 1010.8
20260905084527 22 229 0.0 0.0 0.00 0.00 0.00 89 1010.9
20260905083027 22 261 0.0 0.0 0.00 0.00 0.00 89 1011.2
20260905081522 23 282 0.0 0.0 0.00 0.00 0.00 88 1011.2
20260905080024 22 282 0.0 0.0 0.00 0.00 0.00 89 1011.4
20260905074512 22 282 0.0 0.0 0.00 0.00 0.00 89 1011.5
20260905073010 22 282 0.0 0.0 0.00 0.00 0.00 90 1011.6
20260905071508 22 282 0.0 0.0 0.00 0.00 0.00 92 1011.8
20260905070015 21 282 0.0 0.0 0.00 0.00 0.00 93 1011.8
20260905064505 21 220 0.0 0.0 0.00 0.00 0.00 94 1012.1
20260905063003 21 219 0.0 0.0 0.00 0.00 0.00 94 1012.1
20260905061615 21 219 0.0 0.0 0.00 0.00 0.00 94 1012.2
20260905060058 21 219 0.0 0.0 0.00 0.00 0.00 93 1012.2
20260905054601 22 219 0.0 0.0 0.00 0.00 0.00 92 1012.4
20260905053054 22 219 0.0 0.0 0.00 0.00 0.00 92 1012.4